Location: Newark
(25.6108°S, 54.5803°W)
Time: 15:54:06
(UTC+00:00)

Courier 1B Rocket - Pass Details

Date: 02 November 2020
Orbit: 920 x 1202 km, 28.2° (Epoch: 22 November)

Event Time Altitude Azimuth Distance (km) Brightness Sun altitude
Rises 04:26:35 0° 337° (NNW) 4,077 - -46.6°
Reaches altitude 10° 04:30:44 10° 356° (N) 3,123 - -46.2°
Maximum altitude 04:35:13 16° 32° (NNE) 2,669 - -45.7°
Drops below altitude 10° 04:39:39 10° 68° (ENE) 3,098 - -45.3°
Exits shadow 04:41:40 - 79° (ENE) 3,519 8.0 -45.1°
Sets 04:43:43 0° 87° (E) 4,028 8.5 -44.9°
